Snowfall_Accumulation
3.0 0.3 0.6 0.9 1.9 1.1 3.5 2.4 4.2 0.0 0.0 0.0 0.0 0.0 0.0 0.0 0.0 0.0 0.0 0.0 0.0 0.0 0.0 0.0 0.0 0.0 0.0 0.0 0.0 0.0 0.0 0.0 0.0 0.0 0.0 0.0 0.0 0.0 0.0 0.0 0.0 0.0 0.0 0.0
1.7 0.1 0.1 0.4 0.1 0.1 0.1 0.2 0.3 0.1 0.0 0.0 0.0 0.0 0.0 0.0 0.0 0.0 0.0 0.0 0.0 0.0 0.0 0.0 0.0 0.0 0.0 0.0 0.0 0.0 0.0 0.0 0.0 0.0 0.0 0.0 0.0 0.0 0.0 0.0 0.0 0.0 0.0 0.0
2.8 0.1 0.4 4.8 0.1 0.0 0.0 0.0 0.1 0.2 0.0 0.0 0.0 0.0 0.0 0.0 0.0 0.0 0.0 0.0 0.0 0.0 0.0 0.0 0.0 0.0 0.0 0.0 0.0 0.0 0.0 0.0 0.0 0.0 0.0 0.0 0.0 0.0 0.0 0.0 0.0 0.0 0.0 0.0
5.4 1.0 21.1 0.4 0.0 0.0 0.0 0.0 0.0 0.0 0.0 0.0 0.0 0.0 0.0 0.0 0.0 0.0 0.0 0.0 0.0 0.0 0.0 0.0 0.0 0.0 0.0 0.0 0.0 0.0 0.0 0.0 0.0 0.0 0.0 0.0 0.0 0.0 0.0 0.0 0.0 0.0 0.0 0.0
13.0 2.1 0.2 0.0 0.0 0.0 0.0 0.1 0.0 0.0 0.0 0.0 0.0 0.0 0.0 0.0 0.0 0.0 0.0 0.0 0.0 0.0 0.0 0.0 0.0 0.0 0.0 0.0 0.0 0.0 0.0 0.0 0.0 0.0 0.0 0.0 0.0 0.0 0.0 0.0 0.0 0.0 0.0 0.0
4.5 6.3 7.1 0.0 0.0 0.0 0.0 0.4 0.0 0.0 0.0 0.0 0.0 0.0 0.0 0.0 0.0 0.0 0.0 0.0 0.0 0.0 0.0 0.0 0.0 0.0 0.0 0.0 0.0 0.0 0.0 0.0 0.0 0.0 0.0 0.0 0.0 0.0 0.0 0.0 0.0 0.1 0.0 0.0
4.4 4.2 0.7 0.0 0.0 0.0 0.7 0.1 0.0 0.0 0.0 0.0 0.0 0.0 0.0 0.0 0.0 0.0 0.0 0.0 0.0 0.0 0.0 0.0 0.0 0.0 0.0 0.0 0.0 0.0 0.0 0.0 0.0 0.0 0.0 0.0 0.0 0.0 0.0 0.0 0.0 0.0 0.0 0.0
6.4 12.0 13.9 0.0 0.0 0.2 0.1 0.0 0.0 0.0 0.0 0.0 0.0 0.0 0.0 0.0 0.0 0.0 0.0 0.0 0.0 0.0 0.0 0.0 0.0 0.0 0.0 0.0 0.0 0.0 0.0 0.0 0.0 0.0 0.0 0.0 0.0 0.0 0.0 0.0 0.0 0.0 0.0 0.3
1.1 1.6 0.0 0.0 0.0 0.0 0.0 0.0 0.0 0.0 0.0 0.0 0.0 0.0 0.0 0.0 0.0 0.0 0.0 0.0 0.0 0.0 0.0 0.0 0.0 0.0 0.0 0.0 0.0 0.0 0.0 0.0 0.0 0.0 0.0 0.0 0.0 0.0 0.2 0.0 0.3 0.1 0.5 0.6
1.9 0.0 0.0 0.0 0.0 0.0 0.0 0.0 0.0 0.0 0.0 0.0 0.0 0.0 0.0 0.0 0.0 0.0 0.0 0.0 0.0 0.0 0.0 0.0 0.0 0.0 0.0 0.0 0.0 0.0 0.0 0.0 0.0 0.0 0.0 0.0 0.2 0.2 0.3 0.4 0.4 0.6 0.8 1.2
0.0 0.0 0.0 0.0 0.0 0.0 0.0 0.0 0.0 0.0 0.0 0.0 0.0 0.0 0.0 0.0 0.0 0.0 0.0 0.0 0.0 0.0 0.0 0.0 0.0 0.0 0.0 0.0 0.0 0.0 0.0 0.0 0.0 0.1 0.0 0.1 0.1 0.3 0.3 0.2 0.5 0.7 1.0 1.0
0.4 0.0 0.0 0.0 0.0 0.0 0.0 0.0 0.0 0.0 0.0 0.0 0.0 0.0 0.0 0.0 0.0 0.0 0.0 0.0 0.0 0.0 0.0 0.0 0.0 0.0 0.0 0.0 0.0 0.0 0.0 0.1 0.2 0.2 0.3 0.3 0.4 1.0 nan nan nan nan nan 0.9
0.0 0.0 0.0 0.0 0.0 0.0 0.0 0.0 0.0 0.0 0.0 0.0 0.0 0.0 0.0 0.0 0.0 nan 0.0 0.0 0.0 0.0 0.0 0.0 0.0 0.0 0.0 0.0 0.0 0.0 0.0 0.0 0.2 0.2 0.2 0.3 0.4 0.6 2.2 4.4 nan nan nan nan
0.0 0.0 0.0 0.0 0.1 0.0 0.0 0.0 0.0 0.0 0.0 0.0 0.0 0.0 0.0 0.0 0.0 0.0 0.0 0.0 0.0 0.0 0.0 0.0 0.0 0.0 0.0 0.0 0.0 0.0 0.0 0.0 0.3 0.3 0.3 0.5 0.5 0.7 0.7 1.2 2.6 3.4 nan nan
0.0 0.0 0.0 0.0 0.0 0.0 0.0 0.0 0.0 0.0 0.0 0.0 0.0 0.0 0.0 0.0 0.0 0.0 0.0 0.0 0.2 1.0 1.3 0.6 0.5 0.7 0.4 0.2 0.1 0.1 0.2 0.4 0.4 0.4 0.5 0.4 0.5 0.6 0.6 0.9 1.0 1.5 1.6 0.9
0.0 0.0 0.0 0.0 0.0 0.0 0.0 0.0 0.0 0.0 0.0 0.0 0.0 0.0 0.0 0.0 0.0 0.0 0.0 0.0 0.1 0.2 0.1 2.2 1.4 0.9 0.8 0.2 0.2 0.1 0.4 0.0 0.2 0.4 0.5 0.5 0.5 0.6 0.6 0.6 0.7 0.8 1.0 1.3
0.0 0.0 0.0 0.0 0.0 0.0 0.0 0.0 0.0 0.0 0.0 0.0 0.0 0.0 0.0 0.0 0.0 0.0 0.0 0.1 0.1 0.3 0.2 0.2 0.6 0.4 0.3 0.1 0.1 0.4 0.3 0.4 0.0 0.3 0.4 0.3 0.4 0.4 0.4 0.7 0.9 0.9 1.4 2.2
0.0 0.0 0.0 0.0 0.0 0.0 0.0 0.0 0.0 0.0 0.0 0.0 0.0 0.6 2.0 1.9 0.5 1.7 2.4 1.9 2.2 2.3 0.3 0.1 0.1 0.1 0.1 0.0 0.1 0.3 0.4 0.4 0.3 0.4 0.4 0.5 0.4 0.3 0.4 0.6 0.6 0.7 1.1 1.2
0.0 0.0 0.0 0.0 0.0 0.0 0.0 0.0 0.0 0.0 1.0 0.7 1.9 1.7 1.6 2.5 0.5 0.4 0.6 3.3 3.5 0.5 0.4 0.1 0.0 0.0 0.1 0.1 0.1 0.4 0.5 0.6 0.6 0.5 0.4 1.5 0.8 0.4 0.7 0.9 1.0 1.2 0.9 1.9
0.0 0.0 0.0 0.0 0.0 0.1 0.3 0.2 0.3 0.3 0.1 0.2 2.5 4.1 3.3 5.1 4.1 4.2 1.6 2.0 0.5 1.1 0.1 0.1 0.1 0.1 0.1 0.1 0.1 0.4 0.6 0.9 0.6 0.8 1.1 0.8 1.4 2.3 1.2 3.1 1.0 1.6 4.3 3.9
0.1 0.0 0.1 0.2 0.2 0.2 1.9 2.4 2.1 1.9 2.2 2.9 3.7 5.1 5.3 4.2 5.2 6.3 4.3 3.6 1.8 0.6 0.2 0.0 0.2 0.4 0.3 0.5 0.5 0.7 1.2 2.0 2.0 1.3 1.4 2.4 3.7 2.3 2.9 3.3 3.2 4.6 6.9 5.3
1.3 2.8 4.2 3.3 2.4 3.7 3.3 2.2 1.7 4.4 4.3 6.7 8.8 9.9 8.7 5.5 6.3 6.0 5.3 3.2 3.7 1.5 1.0 0.8 0.5 0.9 1.1 2.3 0.7 1.7 1.2 1.3 1.6 1.7 1.9 2.8 3.0 5.6 6.0 5.2 6.1 7.5 7.2 8.0
1.3 2.1 4.4 7.2 7.7 7.5 6.9 6.7 8.0 6.9 9.5 9.0 9.9 7.2 5.2 5.2 3.9 6.4 8.9 3.6 2.5 3.6 2.0 2.4 3.3 3.1 3.7 2.7 2.2 2.8 3.4 3.7 3.6 2.8 2.8 4.7 4.1 8.1 4.0 4.7 5.8 5.7 9.8 6.7
2.1 3.0 4.3 4.9 5.5 4.8 6.5 7.0 4.6 4.9 9.4 7.3 8.2 9.9 5.1 9.0 9.6 3.8 3.9 5.8 5.5 10.7 7.5 4.4 6.3 5.2 4.9 4.9 5.0 5.4 4.6 5.0 4.6 5.0 2.4 5.6 8.3 6.1 4.7 8.0 5.3 6.1 7.0 6.6
2.8 3.8 3.9 3.3 2.6 4.1 3.0 3.4 4.2 4.8 3.9 3.5 4.6 4.4 3.4 3.9 7.8 7.4 6.7 6.4 7.0 5.2 7.1 5.8 5.6 7.4 8.6 7.9 6.9 6.7 6.3 4.8 5.3 6.4 4.5 7.6 6.8 11.2 9.2 6.7 8.4 9.0 9.4 8.0
1.8 3.1 2.8 2.0 2.1 2.3 2.9 2.6 2.7 4.1 3.1 6.7 4.8 9.0 6.9 4.9 5.0 5.5 6.4 6.9 5.2 6.4 6.5 10.7 12.2 11.7 9.8 7.3 7.4 7.8 5.2 3.5 4.2 3.9 5.1 5.4 5.4 4.5 6.0 5.5 8.2 10.5 13.5 15.1
2.4 1.1 3.1 2.9 2.9 1.4 1.3 2.1 3.5 5.4 4.1 7.2 8.3 6.3 4.5 6.2 7.4 5.9 7.5 9.0 9.0 10.5 10.9 11.8 9.2 7.7 6.4 8.0 7.7 7.0 5.9 5.1 6.5 3.6 6.4 8.2 7.8 11.5 10.5 10.7 12.6 13.9 12.4 11.3
Water_Equivalent
0.53 0.07 0.10 0.15 0.31 0.19 0.57 0.42 0.59 0.00 0.01 0.00 0.00 0.00 0.00 0.00 0.00 0.00 0.00 0.00 0.00 0.00 0.00 0.00 0.00 0.00 0.00 0.00 0.00 0.00 0.00 0.00 0.00 0.00 0.00 0.00 0.00 0.00 0.00 0.00 0.00 0.00 0.00 0.00
0.36 0.02 0.03 0.06 0.02 0.03 0.03 0.05 0.06 0.02 0.00 0.00 0.00 0.00 0.00 0.00 0.00 0.00 0.00 0.00 0.00 0.00 0.00 0.00 0.00 0.00 0.00 0.00 0.00 0.00 0.00 0.00 0.00 0.00 0.00 0.00 0.00 0.00 0.00 0.00 0.00 0.00 0.00 0.00
0.57 0.03 0.09 0.75 0.03 0.00 0.00 0.01 0.01 0.04 0.00 0.00 0.00 0.00 0.00 0.00 0.00 0.00 0.00 0.00 0.00 0.00 0.00 0.00 0.00 0.00 0.00 0.00 0.00 0.00 0.00 0.00 0.00 0.00 0.00 0.00 0.00 0.00 0.00 0.00 0.00 0.00 0.00 0.00
1.08 0.22 2.56 0.07 0.00 0.00 0.01 0.00 0.00 0.00 0.00 0.00 0.00 0.00 0.00 0.00 0.00 0.00 0.00 0.00 0.00 0.00 0.00 0.00 0.00 0.00 0.00 0.00 0.00 0.00 0.00 0.00 0.00 0.00 0.00 0.00 0.00 0.00 0.00 0.00 0.00 0.00 0.00 0.00
2.13 0.44 0.05 0.01 0.00 0.00 0.00 0.02 0.00 0.00 0.00 0.00 0.00 0.00 0.00 0.00 0.00 0.00 0.00 0.00 0.00 0.00 0.00 0.00 0.00 0.00 0.00 0.00 0.00 0.00 0.00 0.00 0.00 0.00 0.00 0.00 0.00 0.00 0.00 0.00 0.00 0.00 0.00 0.00
0.93 0.99 1.06 0.00 0.00 0.00 0.00 0.09 0.00 0.00 0.00 0.00 0.00 0.00 0.00 0.00 0.00 0.00 0.00 0.00 0.00 0.00 0.00 0.00 0.00 0.00 0.00 0.00 0.00 0.00 0.00 0.00 0.00 0.00 0.00 0.00 0.00 0.00 0.00 0.00 0.00 0.02 0.00 0.00
0.97 0.73 0.16 0.00 0.00 0.00 0.13 0.03 0.00 0.00 0.00 0.00 0.00 0.00 0.00 0.00 0.00 0.00 0.00 0.00 0.00 0.00 0.00 0.00 0.00 0.00 0.00 0.00 0.00 0.00 0.00 0.00 0.00 0.00 0.00 0.00 0.00 0.00 0.00 0.00 0.00 0.00 0.00 0.00
1.18 1.97 1.64 0.00 0.00 0.03 0.02 0.00 0.00 0.00 0.00 0.00 0.00 0.00 0.00 0.00 0.00 0.00 0.00 0.00 0.00 0.00 0.00 0.00 0.00 0.00 0.00 0.00 0.00 0.00 0.00 0.00 0.00 0.00 0.00 0.00 0.00 0.00 0.00 0.00 0.00 0.01 0.01 0.10
0.19 0.40 0.00 0.00 0.00 0.00 0.00 0.00 0.00 0.00 0.00 0.00 0.00 0.00 0.00 0.00 0.00 0.00 0.00 0.00 0.00 0.00 0.00 0.00 0.00 0.00 0.00 0.00 0.00 0.00 0.00 0.00 0.00 0.00 0.00 0.00 0.00 0.00 0.08 0.00 0.09 0.04 0.16 0.20
0.32 0.00 0.01 0.00 0.00 0.00 0.00 0.00 0.00 0.00 0.00 0.00 0.00 0.00 0.00 0.00 0.00 0.00 0.00 0.00 0.00 0.00 0.00 0.00 0.00 0.00 0.00 0.00 0.00 0.00 0.00 0.00 0.00 0.00 0.00 0.00 0.08 0.09 0.10 0.13 0.16 0.21 0.26 0.42
0.01 0.00 0.00 0.00 0.00 0.00 0.00 0.00 0.00 0.00 0.00 0.00 0.00 0.00 0.00 0.00 0.00 0.00 0.00 0.00 0.00 0.00 0.00 0.00 0.00 0.00 0.00 0.00 0.00 0.00 0.00 0.00 0.00 0.03 0.01 0.03 0.05 0.11 0.13 0.05 0.17 0.23 0.33 0.35
0.12 0.00 0.00 0.00 0.00 0.00 0.00 0.00 0.00 0.00 0.00 0.00 0.00 0.00 0.00 0.00 0.00 0.00 0.00 0.00 0.00 0.00 0.00 0.00 0.00 0.00 0.00 0.00 0.00 0.00 0.00 0.03 0.06 0.07 0.09 0.11 0.13 0.34 nan nan nan nan nan 0.34
0.00 0.00 0.00 0.00 0.00 0.00 0.00 0.00 0.00 0.00 0.00 0.00 0.00 0.00 0.00 0.00 0.00 nan 0.00 0.00 0.00 0.00 0.00 0.00 0.00 0.00 0.00 0.00 0.00 0.00 0.00 0.00 0.08 0.06 0.09 0.12 0.15 0.21 0.62 1.33 nan nan nan nan
0.00 0.00 0.00 0.00 0.03 0.00 0.00 0.00 0.00 0.00 0.00 0.00 0.00 0.00 0.00 0.00 0.00 0.00 0.00 0.00 0.00 0.00 0.00 0.00 0.00 0.00 0.00 0.00 0.00 0.00 0.00 0.00 0.11 0.12 0.12 0.17 0.19 0.24 0.24 0.36 0.70 0.92 nan nan
0.00 0.00 0.00 0.00 0.00 0.00 0.00 0.00 0.00 0.00 0.00 0.00 0.00 0.00 0.00 0.00 0.00 0.00 0.00 0.01 0.08 0.41 0.51 0.24 0.17 0.24 0.15 0.08 0.04 0.03 0.07 0.17 0.15 0.17 0.18 0.17 0.19 0.22 0.22 0.27 0.31 0.43 0.42 0.23
0.00 0.00 0.00 0.00 0.00 0.00 0.00 0.00 0.00 0.00 0.00 0.00 0.00 0.00 0.00 0.00 0.00 0.00 0.00 0.00 0.03 0.05 0.05 0.77 0.49 0.34 0.31 0.10 0.07 0.05 0.16 0.00 0.08 0.14 0.17 0.18 0.19 0.21 0.20 0.20 0.21 0.24 0.27 0.33
0.00 0.02 0.00 0.00 0.00 0.00 0.00 0.00 0.00 0.00 0.00 0.00 0.00 0.00 0.00 0.00 0.00 0.00 0.00 0.02 0.04 0.10 0.08 0.08 0.21 0.16 0.11 0.04 0.02 0.15 0.12 0.14 0.00 0.12 0.13 0.12 0.14 0.16 0.14 0.20 0.25 0.24 0.42 0.66
0.00 0.00 0.00 0.00 0.00 0.00 0.00 0.00 0.00 0.00 0.00 0.00 0.01 0.19 0.62 0.52 0.11 0.44 0.64 0.54 0.69 0.72 0.09 0.04 0.04 0.04 0.03 0.01 0.02 0.11 0.14 0.15 0.12 0.14 0.13 0.19 0.14 0.11 0.16 0.18 0.18 0.22 0.33 0.35
0.00 0.00 0.00 0.00 0.00 0.00 0.00 0.00 0.00 0.00 0.30 0.23 0.56 0.47 0.42 0.64 0.12 0.11 0.17 0.97 0.98 0.14 0.10 0.02 0.00 0.01 0.02 0.02 0.04 0.16 0.18 0.23 0.19 0.16 0.14 0.49 0.28 0.14 0.22 0.29 0.30 0.39 0.26 0.49
0.00 0.00 0.00 0.00 0.00 0.02 0.07 0.05 0.08 0.08 0.03 0.04 0.69 1.07 0.79 1.35 1.11 1.16 0.43 0.51 0.15 0.34 0.04 0.03 0.03 0.03 0.03 0.03 0.04 0.13 0.21 0.34 0.21 0.30 0.37 0.25 0.46 0.81 0.41 1.01 0.30 0.50 1.33 1.10
0.02 0.00 0.02 0.04 0.04 0.06 0.54 0.63 0.46 0.38 0.46 0.76 0.98 1.31 1.31 1.07 1.36 1.72 1.03 0.77 0.42 0.16 0.06 0.01 0.06 0.13 0.11 0.15 0.17 0.26 0.44 0.73 0.71 0.43 0.44 0.86 1.33 0.79 0.97 1.11 1.01 1.47 2.08 1.53
0.30 0.71 1.05 0.73 0.45 0.71 0.69 0.46 0.34 0.93 0.92 1.51 2.18 2.48 2.00 1.06 1.42 1.39 1.35 0.67 0.87 0.51 0.30 0.25 0.18 0.30 0.35 0.76 0.23 0.63 0.40 0.45 0.57 0.57 0.62 1.00 1.06 1.98 2.07 1.74 1.83 2.25 2.20 2.38
0.28 0.40 0.90 1.45 1.54 1.38 1.37 1.30 1.73 1.46 2.08 1.92 2.16 1.54 1.07 1.03 0.81 1.26 1.47 0.74 0.59 1.11 0.54 0.69 1.09 1.04 1.22 1.03 0.84 1.08 1.25 1.28 1.18 0.91 0.92 1.65 1.44 2.89 1.28 1.43 1.75 1.76 2.93 1.88
0.42 0.58 0.82 0.95 1.05 0.83 1.06 1.21 0.83 0.89 1.89 1.37 1.63 2.13 0.99 1.76 2.19 0.78 0.83 1.90 1.81 3.55 2.39 1.30 2.01 1.70 1.61 1.68 1.70 1.92 1.58 1.71 1.53 1.63 0.73 1.83 2.82 1.93 1.44 2.48 1.44 1.82 2.05 1.82
0.54 0.73 0.74 0.59 0.45 0.76 0.53 0.60 0.72 0.81 0.65 0.63 0.81 0.80 0.61 0.79 1.64 1.46 1.53 1.47 2.17 1.34 1.73 1.85 1.85 2.43 2.72 2.63 2.32 2.23 2.09 1.55 1.74 2.06 1.33 2.35 2.08 3.43 2.76 1.92 2.39 2.61 2.58 2.19
0.34 0.62 0.57 0.36 0.38 0.46 0.56 0.51 0.52 0.77 0.63 1.29 0.92 2.24 1.73 1.11 1.09 1.15 1.43 1.88 1.07 1.91 1.43 2.85 3.50 3.44 3.02 2.13 2.33 2.39 1.56 1.04 1.27 1.17 1.51 1.56 1.52 1.24 1.61 1.48 2.25 2.99 3.84 4.35
0.51 0.26 0.61 0.57 0.56 0.32 0.29 0.43 0.72 1.01 1.05 1.69 1.61 1.49 1.04 1.50 1.84 1.50 2.27 2.21 2.18 2.57 2.66 3.15 2.50 2.37 1.54 2.24 1.94 1.76 1.55 1.43 2.12 0.97 1.84 2.30 2.18 3.26 2.87 2.94 3.52 3.98 3.37 2.89
SL_Ratio
5.7 5.1 5.7 6.1 6.1 5.8 6.1 5.8 7.0 nan 6.5 nan nan nan nan nan nan nan nan nan nan nan nan nan nan nan nan nan nan nan nan nan nan nan nan nan nan nan nan nan nan nan nan nan
4.8 3.7 4.5 6.3 4.4 3.7 4.3 4.6 5.4 5.1 6.0 nan nan nan nan nan nan nan nan nan nan nan nan nan nan nan nan nan nan nan nan nan nan nan nan nan nan nan nan nan nan nan nan nan
4.9 4.1 4.7 6.3 3.9 4.3 4.2 5.6 6.0 6.8 5.7 nan nan nan nan nan nan nan nan nan nan nan nan nan nan nan nan nan nan nan nan nan nan nan nan nan nan nan nan nan nan nan nan nan
5.0 4.5 8.2 5.2 nan nan 3.8 5.4 3.3 nan nan nan nan nan nan nan nan nan nan nan nan nan nan nan nan nan nan nan nan nan nan nan nan nan nan nan nan nan nan nan nan nan nan nan
6.1 4.9 4.5 3.8 0.0 nan 10.0 4.7 nan nan nan nan nan nan nan nan nan nan nan nan nan nan nan nan nan nan nan nan nan nan nan nan nan nan nan nan nan nan nan nan nan nan nan nan
4.8 6.3 6.7 3.3 nan nan nan 4.7 nan nan nan nan nan 4.0 nan nan nan nan nan nan nan nan nan nan nan nan nan nan nan nan nan nan nan nan nan nan nan nan nan nan nan 3.0 nan 2.5
4.5 5.7 4.6 nan nan nan 5.0 4.8 nan nan nan nan nan nan nan nan nan nan nan nan nan nan nan nan nan nan nan nan nan nan nan nan nan nan nan nan nan nan nan nan nan 3.3 0.0 2.5
5.4 6.1 8.5 nan nan 7.2 6.4 nan nan nan nan nan nan nan nan nan nan nan nan nan nan nan nan nan nan nan nan nan nan nan nan nan nan nan nan nan nan nan nan nan nan 3.1 3.3 2.8
5.9 4.0 nan nan nan nan nan nan nan nan nan nan nan nan nan nan nan nan nan nan nan nan nan nan nan nan nan nan nan nan nan nan nan nan nan nan nan nan 2.9 nan 2.8 2.8 2.8 3.0
5.9 nan 5.0 nan nan nan nan nan nan nan nan nan nan nan nan nan nan nan nan nan nan nan nan nan nan nan nan nan nan nan nan nan nan nan 0.0 nan 2.7 2.8 2.9 2.8 2.7 2.8 2.9 3.0
3.2 nan nan nan nan nan nan nan nan nan nan nan nan nan nan nan nan nan nan nan nan nan nan nan nan nan nan nan nan nan nan nan nan 2.7 2.6 2.9 2.7 2.7 2.7 2.8 2.8 2.9 2.9 2.8
3.0 nan 6.0 5.7 nan nan nan nan nan nan nan nan nan nan nan nan nan nan nan nan nan nan nan nan nan nan nan nan nan nan nan 2.9 2.7 2.7 2.9 3.0 3.0 2.9 nan nan nan nan nan 2.7
nan nan nan nan nan nan nan nan nan nan nan nan nan nan nan nan nan nan nan nan nan nan nan nan nan nan nan nan nan nan nan nan 2.6 2.7 2.6 2.6 2.8 2.8 3.6 3.3 nan nan nan nan
nan nan 2.9 nan 2.5 nan nan nan nan nan nan nan nan nan nan nan nan nan 2.5 nan nan nan nan nan nan 2.9 nan nan nan nan nan nan 2.5 2.5 2.6 2.7 2.7 2.7 2.8 3.4 3.6 3.7 nan nan
nan nan nan nan nan nan nan nan nan nan nan nan nan nan nan nan nan nan nan 2.3 2.6 2.6 2.6 2.7 2.6 2.7 2.5 2.5 2.5 2.4 2.5 2.6 2.6 2.5 2.6 2.5 2.6 2.7 2.8 3.2 3.4 3.6 3.8 3.7
nan nan 6.2 nan nan nan nan nan nan nan nan nan nan nan nan nan nan nan nan nan 2.7 2.9 2.9 2.9 2.9 2.6 2.7 2.5 2.5 2.5 2.5 2.7 2.7 2.6 2.7 2.7 2.7 2.8 3.1 3.2 3.3 3.4 3.8 3.8
0.0 2.5 0.0 0.0 nan nan nan nan nan nan nan nan nan nan nan nan nan 0.0 5.0 3.2 3.2 3.2 3.0 3.1 2.9 2.8 2.9 2.6 2.6 2.6 2.7 2.8 nan 2.8 2.8 2.7 2.7 2.8 2.8 3.2 3.4 3.5 3.4 3.3
nan nan nan nan nan nan nan nan nan nan nan nan 3.0 3.0 3.2 3.6 4.0 3.9 3.7 3.5 3.2 3.1 3.0 3.0 3.1 3.3 3.2 2.9 3.0 2.8 3.0 3.0 2.8 2.8 2.8 2.9 2.8 2.7 2.8 3.1 3.2 3.3 3.3 3.4
nan nan nan nan nan nan nan nan nan 3.3 3.3 3.2 3.5 3.7 3.8 3.9 4.1 4.1 3.7 3.4 3.6 4.0 3.7 3.5 nan 3.1 3.0 2.8 2.6 2.8 2.8 2.8 3.0 3.2 2.9 3.0 2.9 2.8 3.1 3.1 3.2 3.2 3.3 3.9
nan nan nan nan nan 4.2 4.3 4.3 3.8 4.3 4.0 3.9 3.7 3.8 4.2 3.8 3.7 3.6 3.7 4.0 3.5 3.4 3.1 3.4 3.3 3.3 3.2 3.1 2.7 2.9 2.8 2.7 2.9 2.8 3.0 3.3 3.0 2.8 3.0 3.0 3.3 3.3 3.2 3.5
3.8 3.8 3.3 3.8 4.6 3.7 3.5 3.8 4.6 4.9 4.7 3.8 3.8 3.9 4.0 4.0 3.8 3.7 4.2 4.7 4.4 3.7 3.0 3.2 2.9 2.9 2.9 3.1 3.1 2.9 2.7 2.7 2.8 2.9 3.2 2.8 2.8 2.9 3.0 2.9 3.2 3.1 3.3 3.5
4.5 4.0 4.0 4.6 5.3 5.2 4.8 4.8 5.1 4.8 4.7 4.4 4.0 4.0 4.4 5.2 4.4 4.3 4.0 4.8 4.2 3.0 3.2 3.1 3.0 3.0 3.0 3.0 3.0 2.7 3.0 3.0 2.9 2.9 3.0 2.8 2.8 2.8 2.9 3.0 3.3 3.3 3.3 3.4
4.8 5.2 4.9 5.0 5.0 5.5 5.1 5.2 4.6 4.7 4.6 4.7 4.6 4.7 4.9 5.0 4.8 5.1 6.1 4.9 4.2 3.2 3.8 3.4 3.1 3.0 3.0 2.6 2.6 2.6 2.7 2.9 3.0 3.1 3.0 2.8 2.9 2.8 3.1 3.3 3.3 3.3 3.3 3.6
4.9 5.1 5.2 5.2 5.2 5.8 6.2 5.8 5.6 5.5 5.0 5.4 5.0 4.6 5.1 5.1 4.4 4.9 4.7 3.0 3.1 3.0 3.2 3.4 3.1 3.0 3.0 2.9 3.0 2.8 2.9 2.9 3.0 3.1 3.3 3.0 2.9 3.1 3.3 3.2 3.7 3.4 3.4 3.6
5.2 5.2 5.3 5.6 5.8 5.4 5.7 5.7 5.9 5.9 5.9 5.6 5.7 5.5 5.5 4.9 4.8 5.0 4.4 4.4 3.2 3.9 4.1 3.1 3.0 3.0 3.1 3.0 3.0 3.0 3.0 3.1 3.1 3.1 3.4 3.3 3.3 3.3 3.3 3.5 3.5 3.4 3.7 3.6
5.2 4.9 4.9 5.6 5.4 5.0 5.2 5.0 5.1 5.3 5.0 5.1 5.2 4.0 4.0 4.4 4.6 4.8 4.5 3.7 4.8 3.4 4.5 3.8 3.5 3.4 3.3 3.4 3.2 3.3 3.4 3.4 3.3 3.3 3.3 3.5 3.5 3.6 3.7 3.7 3.6 3.5 3.5 3.5
4.6 4.3 5.0 5.1 5.2 4.4 4.3 4.8 4.8 5.4 4.0 4.3 5.2 4.2 4.4 4.2 4.0 3.9 3.3 4.1 4.1 4.1 4.1 3.8 3.7 3.2 4.2 3.6 4.0 4.0 3.8 3.5 3.1 3.7 3.5 3.6 3.6 3.5 3.7 3.6 3.6 3.5 3.7 3.9